Time,TemperatureF,DewpointF,PressureIn,WindDirection,WindDirectionDegrees,WindSpeedMPH,WindSpeedGustMPH,Humidity,HourlyPrecipIn,Conditions,Clouds,dailyrainin,SoftwareType,DateUTC
2013-06-29 01:01:00,70.0,53.0,29.73,NW,304,0.0,0.0,55,0.00,,,0.00,,2013-06-29 06:01:00,
2013-06-29 01:12:00,70.0,53.0,29.73,NW,304,0.0,0.0,55,0.00,,,0.00,,2013-06-29 06:12:00,
2013-06-29 01:22:00,70.0,54.0,29.72,NW,304,0.0,0.0,56,0.00,,,0.00,,2013-06-29 06:22:00,
2013-06-29 01:33:00,70.0,54.0,29.72,NW,304,0.0,0.0,56,0.00,,,0.00,,2013-06-29 06:33:00,
2013-06-29 01:43:00,69.0,53.0,29.73,NW,304,0.0,0.0,57,0.00,,,0.00,,2013-06-29 06:43:00,
2013-06-29 01:53:00,69.0,53.0,29.73,NW,304,0.0,0.0,57,0.00,,,0.00,,2013-06-29 06:53:00,
2013-06-29 02:02:00,69.0,53.0,29.73,WNW,302,0.0,0.0,57,0.00,,,0.00,,2013-06-29 07:02:00,
2013-06-29 02:12:00,69.0,54.0,29.72,WNW,300,0.0,0.0,58,0.00,,,0.00,,2013-06-29 07:12:00,
2013-06-29 02:22:00,69.0,54.0,29.72,WNW,300,0.0,0.0,58,0.00,,,0.00,,2013-06-29 07:22:00,
2013-06-29 02:33:00,69.0,54.0,29.72,SSW,200,0.0,0.0,58,0.00,,,0.00,,2013-06-29 07:33:00,
2013-06-29 02:43:00,68.0,53.0,29.72,SSW,200,0.0,0.0,59,0.00,,,0.00,,2013-06-29 07:43:00,
2013-06-29 02:53:00,68.0,53.0,29.72,SSW,200,0.0,0.0,59,0.00,,,0.00,,2013-06-29 07:53:00,
2013-06-29 03:01:00,68.0,54.0,29.72,SSW,200,0.0,0.0,60,0.00,,,0.00,,2013-06-29 08:01:00,
2013-06-29 03:11:00,68.0,54.0,29.72,SSW,200,0.0,0.0,60,0.00,,,0.00,,2013-06-29 08:11:00,
2013-06-29 03:22:00,68.0,54.0,29.72,SSW,200,0.0,0.0,60,0.00,,,0.00,,2013-06-29 08:22:00,
2013-06-29 03:33:00,68.0,54.0,29.72,SSW,198,0.0,0.0,61,0.00,,,0.00,,2013-06-29 08:33:00,
2013-06-29 03:43:00,68.0,54.0,29.72,SSW,198,0.0,0.0,61,0.00,,,0.00,,2013-06-29 08:43:00,
2013-06-29 03:52:00,68.0,54.0,29.71,SSW,198,0.0,0.0,62,0.00,,,0.00,,2013-06-29 08:52:00,
2013-06-29 04:02:00,68.0,54.0,29.71,SSW,198,0.0,0.0,62,0.00,,,0.00,,2013-06-29 09:02:00,
2013-06-29 04:12:00,68.0,54.0,29.72,SSW,198,0.0,0.0,62,0.00,,,0.00,,2013-06-29 09:12:00,
2013-06-29 04:22:00,68.0,54.0,29.72,SSW,198,0.0,0.0,62,0.00,,,0.00,,2013-06-29 09:22:00,
2013-06-29 04:33:00,67.0,54.0,29.72,SSW,198,0.0,0.0,63,0.00,,,0.00,,2013-06-29 09:33:00,
2013-06-29 04:42:00,67.0,54.0,29.72,SSW,198,0.0,0.0,64,0.00,,,0.00,,2013-06-29 09:42:00,
2013-06-29 04:53:00,67.0,54.0,29.72,SSW,198,0.0,0.0,64,0.00,,,0.00,,2013-06-29 09:53:00,
2013-06-29 05:01:00,67.0,54.0,29.72,SSW,198,0.0,0.0,64,0.00,,,0.00,,2013-06-29 10:01:00,
2013-06-29 05:11:00,67.0,54.0,29.72,SSW,198,0.0,0.0,64,0.00,,,0.00,,2013-06-29 10:11:00,
2013-06-29 05:22:00,67.0,54.0,29.72,SSW,198,0.0,0.0,64,0.00,,,0.00,,2013-06-29 10:22:00,
2013-06-29 05:33:00,66.0,54.0,29.72,SSW,197,0.0,1.0,65,0.00,,,0.00,,2013-06-29 10:33:00,
2013-06-29 05:43:00,66.0,54.0,29.72,SSW,197,0.0,1.0,65,0.00,,,0.00,,2013-06-29 10:43:00,
2013-06-29 05:53:00,66.0,54.0,29.73,NE,53,0.0,0.0,66,0.00,,,0.00,,2013-06-29 10:53:00,
2013-06-29 06:01:00,66.0,54.0,29.74,NE,52,0.0,2.0,66,0.00,,,0.00,,2013-06-29 11:01:00,
2013-06-29 06:11:00,66.0,55.0,29.74,NNE,28,0.0,0.0,67,0.00,,,0.00,,2013-06-29 11:11:00,
2013-06-29 06:23:00,66.0,55.0,29.74,NNE,28,0.0,0.0,68,0.00,,,0.00,,2013-06-29 11:23:00,
2013-06-29 06:33:00,66.0,55.0,29.74,NNE,27,0.0,0.0,68,0.00,,,0.00,,2013-06-29 11:33:00,
2013-06-29 06:43:00,66.0,55.0,29.74,NNE,27,0.0,0.0,68,0.00,,,0.00,,2013-06-29 11:43:00,
2013-06-29 06:53:00,66.0,55.0,29.74,NNE,27,0.0,0.0,67,0.00,,,0.00,,2013-06-29 11:53:00,
2013-06-29 07:02:00,66.0,55.0,29.74,NNE,27,0.0,0.0,67,0.00,,,0.00,,2013-06-29 12:02:00,
2013-06-29 07:12:00,66.0,55.0,29.74,NNE,27,0.0,0.0,67,0.00,,,0.00,,2013-06-29 12:12:00,
2013-06-29 07:22:00,66.0,55.0,29.74,NNE,27,0.0,0.0,67,0.00,,,0.00,,2013-06-29 12:22:00,
2013-06-29 07:34:00,69.0,56.0,29.74,North,10,0.0,2.0,63,0.00,,,0.00,,2013-06-29 12:34:00,
2013-06-29 07:43:00,69.0,56.0,29.74,North,10,0.0,2.0,63,0.00,,,0.00,,2013-06-29 12:43:00,
2013-06-29 07:53:00,69.0,56.0,29.74,North,10,0.0,2.0,63,0.00,,,0.00,,2013-06-29 12:53:00,
2013-06-29 08:02:00,69.0,56.0,29.74,North,10,0.0,2.0,63,0.00,,,0.00,,2013-06-29 13:02:00,
2013-06-29 08:11:00,70.0,57.0,29.75,NE,37,0.0,0.0,63,0.00,,,0.00,,2013-06-29 13:11:00,
2013-06-29 08:23:00,71.0,58.0,29.74,SSW,204,0.0,2.0,63,0.00,,,0.00,,2013-06-29 13:23:00,
2013-06-29 08:34:00,72.0,58.0,29.74,WSW,254,0.0,1.0,61,0.00,,,0.00,,2013-06-29 13:34:00,
2013-06-29 08:43:00,72.0,58.0,29.74,WSW,254,0.0,1.0,61,0.00,,,0.00,,2013-06-29 13:43:00,
2013-06-29 08:53:00,72.0,58.0,29.74,WSW,254,0.0,1.0,61,0.00,,,0.00,,2013-06-29 13:53:00,
2013-06-29 09:02:00,73.0,57.0,29.74,North,0,0.0,3.0,58,0.00,,,0.00,,2013-06-29 14:02:00,
2013-06-29 09:12:00,73.0,57.0,29.74,North,0,0.0,3.0,58,0.00,,,0.00,,2013-06-29 14:12:00,
2013-06-29 09:23:00,73.0,57.0,29.74,North,0,0.0,3.0,58,0.00,,,0.00,,2013-06-29 14:23:00,
2013-06-29 09:34:00,73.0,57.0,29.74,North,0,0.0,3.0,58,0.00,,,0.00,,2013-06-29 14:34:00,
2013-06-29 09:44:00,73.0,58.0,29.75,North,10,1.0,6.0,59,0.00,,,0.00,,2013-06-29 14:44:00,
2013-06-29 09:53:00,73.0,58.0,29.75,North,10,1.0,6.0,59,0.00,,,0.00,,2013-06-29 14:53:00,
2013-06-29 10:01:00,74.0,59.0,29.74,North,0,0.0,8.0,60,0.00,,,0.00,,2013-06-29 15:01:00,
2013-06-29 10:11:00,74.0,59.0,29.74,NE,36,0.0,9.0,59,0.00,,,0.00,,2013-06-29 15:11:00,
2013-06-29 10:22:00,74.0,58.0,29.74,NNW,336,0.0,9.0,58,0.00,,,0.00,,2013-06-29 15:22:00,
2013-06-29 10:33:00,74.0,58.0,29.73,NNE,32,0.0,9.0,58,0.00,,,0.00,,2013-06-29 15:33:00,
2013-06-29 10:42:00,75.0,57.0,29.73,West,261,1.0,12.0,53,0.00,,,0.00,,2013-06-29 15:42:00,
2013-06-29 10:53:00,75.0,56.0,29.73,NW,319,1.0,12.0,51,0.00,,,0.00,,2013-06-29 15:53:00,
2013-06-29 11:01:00,75.0,55.0,29.73,North,355,1.0,10.0,50,0.00,,,0.00,,2013-06-29 16:01:00,
2013-06-29 11:12:00,75.0,55.0,29.73,NNE,14,2.0,13.0,49,0.00,,,0.00,,2013-06-29 16:12:00,
2013-06-29 11:22:00,76.0,55.0,29.73,NNW,336,2.0,13.0,49,0.00,,,0.00,,2013-06-29 16:22:00,
2013-06-29 11:33:00,76.0,55.0,29.73,NNE,19,1.0,10.0,49,0.00,,,0.00,,2013-06-29 16:33:00,
2013-06-29 11:43:00,76.0,55.0,29.73,NNW,341,1.0,11.0,48,0.00,,,0.00,,2013-06-29 16:43:00,
2013-06-29 11:53:00,76.0,54.0,29.73,NNW,338,2.0,15.0,47,0.00,,,0.00,,2013-06-29 16:53:00,
2013-06-29 12:01:00,77.0,56.0,29.73,North,355,4.0,15.0,48,0.00,,,0.00,,2013-06-29 17:01:00,
2013-06-29 12:12:00,77.0,56.0,29.73,North,355,4.0,15.0,48,0.00,,,0.00,,2013-06-29 17:12:00,
2013-06-29 12:22:00,77.0,56.0,29.73,North,355,4.0,15.0,48,0.00,,,0.00,,2013-06-29 17:22:00,
2013-06-29 12:33:00,77.0,56.0,29.73,NNW,333,1.0,8.0,48,0.00,,,0.00,,2013-06-29 17:33:00,
2013-06-29 12:42:00,77.0,55.0,29.73,NNW,338,3.0,13.0,47,0.00,,,0.00,,2013-06-29 17:42:00,
2013-06-29 12:53:00,77.0,54.0,29.74,SE,139,6.0,17.0,45,0.00,,,0.00,,2013-06-29 17:53:00,
2013-06-29 13:01:00,77.0,54.0,29.74,SE,139,6.0,17.0,45,0.00,,,0.00,,2013-06-29 18:01:00,
2013-06-29 13:12:00,77.0,54.0,29.74,SE,139,6.0,17.0,45,0.00,,,0.00,,2013-06-29 18:12:00,
2013-06-29 13:22:00,78.0,54.0,29.73,North,355,2.0,14.0,44,0.00,,,0.00,,2013-06-29 18:22:00,
2013-06-29 13:34:00,78.0,53.0,29.73,NNE,15,3.0,14.0,42,0.00,,,0.00,,2013-06-29 18:34:00,
2013-06-29 13:43:00,78.0,55.0,29.73,North,355,3.0,12.0,45,0.00,,,0.00,,2013-06-29 18:43:00,
2013-06-29 13:53:00,78.0,56.0,29.73,North,0,2.0,16.0,46,0.00,,,0.00,,2013-06-29 18:53:00,
2013-06-29 14:01:00,78.0,56.0,29.73,North,0,2.0,16.0,46,0.00,,,0.00,,2013-06-29 19:01:00,
2013-06-29 14:12:00,78.0,56.0,29.73,North,0,2.0,16.0,46,0.00,,,0.00,,2013-06-29 19:12:00,
2013-06-29 14:22:00,78.0,56.0,29.73,North,0,2.0,16.0,46,0.00,,,0.00,,2013-06-29 19:22:00,
2013-06-29 14:34:00,78.0,56.0,29.73,North,0,2.0,16.0,46,0.00,,,0.00,,2013-06-29 19:34:00,
2013-06-29 14:43:00,78.0,55.0,29.73,NNE,19,2.0,13.0,45,0.00,,,0.00,,2013-06-29 19:43:00,
2013-06-29 14:54:00,78.0,55.0,29.73,NNE,19,2.0,13.0,45,0.00,,,0.00,,2013-06-29 19:54:00,
2013-06-29 15:02:00,78.0,55.0,29.73,NNE,19,2.0,13.0,45,0.00,,,0.00,,2013-06-29 20:02:00,
2013-06-29 15:11:00,79.0,54.0,29.72,NNE,16,3.0,16.0,42,0.00,,,0.00,,2013-06-29 20:11:00,
2013-06-29 15:23:00,79.0,54.0,29.72,NNE,16,3.0,16.0,42,0.00,,,0.00,,2013-06-29 20:23:00,
2013-06-29 15:33:00,79.0,53.0,29.72,North,351,6.0,14.0,40,0.00,,,0.00,,2013-06-29 20:33:00,
2013-06-29 15:43:00,79.0,53.0,29.72,North,355,5.0,14.0,41,0.00,,,0.00,,2013-06-29 20:43:00,
2013-06-29 15:52:00,79.0,53.0,29.72,North,355,5.0,14.0,41,0.00,,,0.00,,2013-06-29 20:52:00,
2013-06-29 16:02:00,79.0,55.0,29.72,SSE,155,2.0,15.0,44,0.00,,,0.00,,2013-06-29 21:02:00,
2013-06-29 16:11:00,79.0,53.0,29.72,South,185,1.0,15.0,40,0.00,,,0.00,,2013-06-29 21:11:00,
2013-06-29 16:22:00,79.0,53.0,29.72,South,185,1.0,15.0,40,0.00,,,0.00,,2013-06-29 21:22:00,
2013-06-29 16:32:00,79.0,53.0,29.72,South,185,1.0,15.0,40,0.00,,,0.00,,2013-06-29 21:32:00,
2013-06-29 16:42:00,78.0,55.0,29.72,North,355,6.0,20.0,45,0.00,,,0.00,,2013-06-29 21:42:00,
2013-06-29 16:52:00,78.0,54.0,29.73,NE,40,5.0,20.0,44,0.00,,,0.00,,2013-06-29 21:52:00,
2013-06-29 17:01:00,78.0,56.0,29.73,North,5,4.0,17.0,47,0.00,,,0.00,,2013-06-29 22:01:00,
2013-06-29 17:11:00,78.0,56.0,29.73,North,5,4.0,17.0,47,0.00,,,0.00,,2013-06-29 22:11:00,
2013-06-29 17:21:00,77.0,54.0,29.73,North,355,6.0,21.0,45,0.00,,,0.00,,2013-06-29 22:21:00,
2013-06-29 17:33:00,77.0,55.0,29.73,North,355,6.0,18.0,46,0.00,,,0.00,,2013-06-29 22:33:00,
2013-06-29 17:43:00,76.0,57.0,29.73,NE,52,5.0,14.0,52,0.00,,,0.00,,2013-06-29 22:43:00,
2013-06-29 17:53:00,76.0,57.0,29.73,NE,52,5.0,14.0,52,0.00,,,0.00,,2013-06-29 22:53:00,
2013-06-29 18:02:00,76.0,57.0,29.74,NE,40,5.0,15.0,52,0.00,,,0.00,,2013-06-29 23:02:00,
2013-06-29 18:12:00,76.0,57.0,29.73,NE,51,6.0,15.0,52,0.00,,,0.00,,2013-06-29 23:12:00,
2013-06-29 18:23:00,76.0,57.0,29.73,North,0,3.0,13.0,51,0.00,,,0.00,,2013-06-29 23:23:00,
2013-06-29 18:34:00,76.0,57.0,29.73,North,0,3.0,13.0,51,0.00,,,0.00,,2013-06-29 23:34:00,
2013-06-29 18:40:00,75.0,55.0,29.74,NNE,24,3.0,10.0,49,0.00,,,0.00,,2013-06-29 23:40:00,
2013-06-29 18:43:00,75.0,55.0,29.74,North,0,4.0,13.0,50,0.00,,,0.00,,2013-06-29 23:43:00,
2013-06-29 18:52:00,75.0,55.0,29.74,North,0,4.0,13.0,50,0.00,,,0.00,,2013-06-29 23:52:00,
2013-06-29 19:02:00,75.0,55.0,29.74,NNE,24,3.0,10.0,49,0.00,,,0.00,,2013-06-30 00:02:00,
2013-06-29 19:12:00,75.0,55.0,29.74,NNE,24,3.0,10.0,49,0.00,,,0.00,,2013-06-30 00:12:00,
2013-06-29 19:22:00,75.0,55.0,29.74,NNE,24,3.0,10.0,49,0.00,,,0.00,,2013-06-30 00:22:00,
2013-06-29 19:33:00,75.0,55.0,29.74,NNE,24,3.0,10.0,49,0.00,,,0.00,,2013-06-30 00:33:00,
2013-06-29 19:52:00,76.0,55.0,29.73,NNE,15,0.0,8.0,48,0.00,,,0.00,,2013-06-30 00:52:00,
2013-06-29 20:01:00,76.0,55.0,29.73,NNE,15,0.0,8.0,48,0.00,,,0.00,,2013-06-30 01:01:00,
2013-06-29 20:11:00,76.0,55.0,29.73,NNE,15,0.0,8.0,48,0.00,,,0.00,,2013-06-30 01:11:00,
2013-06-29 20:22:00,75.0,52.0,29.74,NNW,340,0.0,9.0,44,0.00,,,0.00,,2013-06-30 01:22:00,
2013-06-29 20:33:00,75.0,52.0,29.74,North,349,0.0,3.0,44,0.00,,,0.00,,2013-06-30 01:33:00,
2013-06-29 20:44:00,75.0,52.0,29.74,North,9,0.0,5.0,45,0.00,,,0.00,,2013-06-30 01:44:00,
2013-06-29 20:53:00,74.0,52.0,29.75,North,5,0.0,5.0,46,0.00,,,0.00,,2013-06-30 01:53:00,
2013-06-29 21:02:00,74.0,52.0,29.75,NNE,22,0.0,4.0,46,0.00,,,0.00,,2013-06-30 02:02:00,
2013-06-29 21:11:00,74.0,52.0,29.75,NNE,22,0.0,4.0,46,0.00,,,0.00,,2013-06-30 02:11:00,
2013-06-29 21:23:00,74.0,52.0,29.75,NNE,22,0.0,4.0,46,0.00,,,0.00,,2013-06-30 02:23:00,
2013-06-29 21:33:00,73.0,52.0,29.75,NNE,12,0.0,0.0,47,0.00,,,0.00,,2013-06-30 02:33:00,
2013-06-29 21:43:00,73.0,52.0,29.75,NNE,12,0.0,0.0,47,0.00,,,0.00,,2013-06-30 02:43:00,
2013-06-29 21:53:00,73.0,52.0,29.75,NNE,12,0.0,0.0,47,0.00,,,0.00,,2013-06-30 02:53:00,
2013-06-29 22:01:00,72.0,53.0,29.75,NNE,12,0.0,0.0,51,0.00,,,0.00,,2013-06-30 03:01:00,
2013-06-29 22:12:00,72.0,53.0,29.75,NNE,12,0.0,0.0,51,0.00,,,0.00,,2013-06-30 03:12:00,
2013-06-29 22:23:00,71.0,53.0,29.76,NNE,12,0.0,0.0,53,0.00,,,0.00,,2013-06-30 03:23:00,
2013-06-29 22:33:00,71.0,53.0,29.76,NNE,12,0.0,2.0,53,0.00,,,0.00,,2013-06-30 03:33:00,
2013-06-29 22:43:00,71.0,53.0,29.76,NNE,12,0.0,2.0,53,0.00,,,0.00,,2013-06-30 03:43:00,
2013-06-29 22:53:00,70.0,54.0,29.78,NNE,12,0.0,0.0,56,0.00,,,0.00,,2013-06-30 03:53:00,
2013-06-29 23:01:00,70.0,54.0,29.78,NNE,12,0.0,0.0,56,0.00,,,0.00,,2013-06-30 04:01:00,
2013-06-29 23:12:00,70.0,54.0,29.78,NNE,12,0.0,0.0,57,0.00,,,0.00,,2013-06-30 04:12:00,
2013-06-29 23:22:00,70.0,54.0,29.78,NNE,12,0.0,0.0,57,0.00,,,0.00,,2013-06-30 04:22:00,
2013-06-29 23:33:00,70.0,55.0,29.79,NNE,12,0.0,0.0,59,0.00,,,0.00,,2013-06-30 04:33:00,
2013-06-29 23:43:00,70.0,55.0,29.79,NNE,12,0.0,0.0,59,0.00,,,0.00,,2013-06-30 04:43:00,
2013-06-29 23:53:00,68.0,56.0,29.79,NNE,12,0.0,0.0,65,0.00,,,0.00,,2013-06-30 04:53:00,